Greenville/Spartanburg, SC

1:03 PM EDT on April 26, 2017 (GMT -0400)
Greenville-Spartanburg International

Weather History for KGSP - October, 2014

Change the Weather History Date:

Saturday, October 4, 2014

  Actual Average Record
Temperature  
Mean Temperature 55 °F 65 °F  
Max Temperature 66 °F 76 °F 94 °F (1954)
Min Temperature 44 °F 55 °F 32 °F (1974)
Degree Days  
Heating Degree Days 10 2  
Month to date heating degree days 10 8  
Since 1 July heating degree days 16 25  
Cooling Degree Days 0 3  
Month to date cooling degree days 20 12  
Year to date cooling degree days 1658 1674  
Growing Degree Days 7 (Base 50)    
Moisture  
Dew Point 43 °F    
Average Humidity 64    
Maximum Humidity 100    
Minimum Humidity 28    
Precipitation  
Precipitation 0.00 in 0.12 in 2.75 in (1937)
Month to date precipitation 0.46 0.47  
Year to date precipitation 39.10 36.41  
Snow  
Snow 0.00 in 0.00 in 0.00 in ()
Month to date snowfall 0.0 0.0  
Since 1 July snowfall 0.0 0.0  
Since 1 September snowfall 0.0 0.0  
Snow Depth 0.00 in    
Sea Level Pressure  
Sea Level Pressure 29.81 in    
Wind  
Wind Speed 7 mph (NW)    
Max Wind Speed 14 mph    
Max Gust Speed 20 mph    
Visibility 10 miles    
Events      
T = Trace of Precipitation, MM = Missing Value Source: NWS Daily Summary

Daily Weather History Graph

Daily Weather History Graph

Search for Another Location

Airport or City:

Trip Planner

Search our weather history database for the weather conditions in past years. The results will help you decide how hot, cold, wet, or windy it might be!

Date:

Astronomy

Oct. 04, 2014 Rise Set
Actual Time 7:25 AM EDT 7:08 PM EDT
Civil Twilight 7:00 AM EDT 7:33 PM EDT
Nautical Twilight 6:31 AM EDT 8:03 PM EDT
Astronomical Twilight 6:01 AM EDT 8:32 PM EDT
Moon 4:36 PM EDT (10/4) 3:02 AM EDT (10/4)
Length of Visible Light 12h 33m
Length of Day
11h 42m
Waxing Gibbous, 81% of the Moon is Illuminated
Oct 4
Waxing Gibbous
Oct 8
Full
Oct 15
Last Quarter
Oct 23
New
Oct 30
First Quarter

Hourly Weather History & Observations

Time (EDT) Temp. Dew Point Humidity Pressure Visibility Wind Dir Wind Speed Gust Speed Precip Events Conditions
12:53 AM 64.4 °F 62.6 °F 94% 29.80 in 10.0 mi WSW 5.8 mph - N/A   Clear
1:53 AM 64.0 °F 62.1 °F 93% 29.77 in 10.0 mi WSW 6.9 mph - N/A   Clear
2:53 AM 63.0 °F 62.1 °F 97% 29.76 in 10.0 mi SW 9.2 mph - N/A   Clear
3:53 AM 60.1 °F 59.0 °F 96% 29.75 in 10.0 mi North 4.6 mph - N/A   Clear
4:53 AM 59.0 °F 55.9 °F 90% 29.76 in 10.0 mi WSW 6.9 mph - N/A   Clear
5:53 AM 57.9 °F 52.0 °F 81% 29.76 in 10.0 mi West 8.1 mph - N/A   Clear
6:53 AM 55.9 °F 51.1 °F 84% 29.78 in 10.0 mi WSW 6.9 mph - N/A   Clear
7:53 AM 55.0 °F 48.0 °F 77% 29.78 in 10.0 mi NW 3.5 mph - N/A   Clear
8:53 AM 57.9 °F 41.0 °F 53% 29.80 in 10.0 mi Variable 4.6 mph - N/A   Clear
9:53 AM 59.0 °F 46.0 °F 62% 29.82 in 10.0 mi Variable 5.8 mph - N/A   Clear
10:53 AM 60.1 °F 42.1 °F 51% 29.84 in 10.0 mi North 9.2 mph - N/A   Clear
11:53 AM 61.0 °F 41.0 °F 48% 29.83 in 10.0 mi North 12.7 mph 17.3 mph N/A   Clear
12:53 PM 62.1 °F 39.9 °F 44% 29.82 in 10.0 mi NNE 13.8 mph - N/A   Clear
1:53 PM 63.0 °F 39.9 °F 43% 29.79 in 10.0 mi North - - N/A   Clear
2:53 PM 64.9 °F 37.9 °F 37% 29.77 in 10.0 mi ESE 8.1 mph - N/A   Clear
3:53 PM 64.0 °F 37.0 °F 37% 29.77 in 10.0 mi NE 8.1 mph - N/A   Clear
4:53 PM 64.9 °F 30.9 °F 28% 29.78 in 10.0 mi NNW 3.5 mph - N/A   Clear
5:53 PM 63.0 °F 32.0 °F 31% 29.80 in 10.0 mi WNW 8.1 mph 19.6 mph N/A   Clear
6:53 PM 59.0 °F 28.0 °F 31% 29.83 in 10.0 mi North 5.8 mph - N/A   Clear
7:53 PM 55.4 °F 30.2 °F 38% 29.88 in 10.0 mi NW 6.9 mph - N/A   Clear
8:53 PM 54.0 °F 32.0 °F 43% 29.89 in 10.0 mi WNW 5.8 mph - N/A   Clear
9:53 PM 48.9 °F 35.1 °F 59% 29.92 in 10.0 mi West 6.9 mph - N/A   Clear
10:53 PM 48.0 °F 36.0 °F 63% 29.93 in 10.0 mi Calm Calm - N/A   Clear
11:53 PM 44.1 °F 37.9 °F 79% 29.93 in 10.0 mi Calm Calm - N/A   Clear